Location: Borotín
(49.5055°N, 14.6142°E)
Time: 05:54:47
(UTC+00:00)

Cosmos 407 Rocket - Pass Details

Date: 27 May 2022
Orbit: 743 x 786 km, 74.0° (Epoch: 28 June)

Event Time Altitude Azimuth Distance (km) Brightness Sun altitude
Rises 02:06:35 0° 334° (NNW) 3,284 7.1 -7.9°
Reaches altitude 10° 02:09:00 10° 332° (NNW) 2,347 6.3 -7.6°
Maximum altitude 02:14:17 66° 251° (WSW) 849 3.5 -7.0°
Drops below altitude 10° 02:19:28 10° 170° (S) 2,306 5.7 -6.4°
Sets 02:21:50 0° 168° (SSE) 3,222 6.4 -6.1°
